Location: Godzisko
(49.9648°N, 19.4576°E)
Time: 00:59:43
(UTC+00:00)

Cosmos 1934 Rocket - Pass Details

Date: 20 April 2021
Orbit: 938 x 999 km, 83.0° (Epoch: 08 May)

Event Time Altitude Azimuth Distance (km) Brightness Sun altitude
Rises 01:29:20 0° 349° (N) 3,720 7.6 -18.3°
Reaches altitude 10° 01:31:53 10° 350° (N) 2,760 6.8 -18.1°
Maximum altitude 01:38:14 86° 262° (W) 988 3.9 -17.3°
Drops below altitude 10° 01:44:26 10° 175° (S) 2,701 6.0 -16.6°
Enters shadow 01:45:06 - 175° (S) 2,949 6.2 -16.5°
